Regional Weather Roundup
Issued by NWS

Home | Current Version | Previous Version | Graphics & Text | Print | Product List | Glossary Off
Versions: 1 2 3 4 5 6 7 8 9 10 11 12 13 14 15 16 17 18 19 20 21 22 23 24 25 26 27 28 29 30 31 32 33 34 35 36 37 38 39 40 41 42 43 44 45 46 47 48 49 50

854
ASUS43 KLSX 231607
RWRMO

WEATHER SUMMARY FOR MISSOURI
NATIONAL WEATHER SERVICE SPRINGFIELD MO
1100 AM CDT TUE AUG 23 2016

NOTE: "FAIR" INDICATES FEW OR NO CLOUDS BELOW 12,000 FEET WITH NO
       SIGNIFICANT WEATHER AND/OR OBSTRUCTIONS TO VISIBILITY.
       CURRENT SKY AND/OR WEATHER CONDITIONS ARE NOT AVAILABLE FOR
       CHILLICOTHE AND FARMINGTON.

MOZ001>031-035>038-043-044-053-054-231700-
...NORTHERN AND WESTERN MISSOURI...

CITY           SKY/WX    TMP DP  RH WIND       PRES   REMARKS
KANSAS CTY INT PTSUNNY   78  69  73 S15       30.03F
KANSAS C DTWN  CLOUDY    79  70  74 S10       30.03F
LEE`S SUMMIT   CLOUDY    78  71  79 S10G21    30.06F
CHILLICOTHE      N/A     74  68  81 S6        30.09F
KIRKSVILLE     MOSUNNY   77  67  71 S10       30.12F

$$
MOZ066>068-077>081-088>096-101>105-231700-
...SOUTHWEST MISSOURI...

CITY           SKY/WX    TMP DP  RH WIND       PRES   REMARKS
SPRINGFIELD    PTSUNNY   76  71  85 S13       30.15F
JOPLIN         PTSUNNY   78  72  81 S15G23    30.12R
BRANSON        CLOUDY    77  72  83 S7        30.19S

$$
MOZ032>034-039>042-045>050-055>058-069>072-231700-
...CENTRAL MISSOURI...

CITY           SKY/WX    TMP DP  RH WIND       PRES   REMARKS
COLUMBIA       CLOUDY    75  68  78 SE9       30.14F
JEFFERSON CITY CLOUDY    74  68  81 SE7       30.14S
ROLLA          CLOUDY    74  70  87 S12       30.17S
SEDALIA        CLOUDY    76  70  82 S12       30.12F
WHITEMAN AFB   PTSUNNY   78  74  87 S17       30.08S
OSAGE BEACH    LGT RAIN  73  70  90 S7        30.16S

$$
MOZ051-052-059>065-231700-
...EAST CENTRAL MISSOURI...

CITY           SKY/WX    TMP DP  RH WIND       PRES   REMARKS
ST LOUIS INTL  LGT RAIN  71  66  84 SE14      30.21S
SPIRIT OF STL  CLOUDY    71  67  87 SE8       30.19S
ST CHARLES     RAIN      70  68  93 SE6       30.20F FOG

$$
MOZ072>076-082>087-097>100-106>115-231700-
...SOUTH CENTRAL AND SOUTHEAST MISSOURI...

CITY           SKY/WX    TMP DP  RH WIND       PRES   REMARKS
CAPE GIRARDEAU CLOUDY    75  66  73 MISG      30.22F
FARMINGTON     CLOUDY    72  68  87 SE9       30.22F
POPLAR BLUFF   CLOUDY    76  70  82 SE7       30.20F

$$



USA.gov is the U.S. government's official web portal to all federal, state and local government web resources and services.